EHI
0 0 0 0 0 0 0 0 0 0 0 0 0 0 0 0 0 0 0 0 0 0 0 0 0 0 0 0 0 0 0 0 0 0 0 0 0 0 0 0 0 0 0 0
0 0 0 0 0 0 0 0 0 0 0 0 0 0 0 0 0 0 0 0 0 0 0 0 0 0 0 0 0 0 0 0 0 0 0 0 0 0 0 0 0 0 0 0
0 0 0 0 0 0 0 0 0 0 0 0 0 0 0 0 0 0 0 0 0 0 0 0 0 0 0 0 0 0 0 0 0 0 0 0 0 0 0 0 0 0 0 0
0 0 0 0 0 0 0 0 0 0 0 0 0 0 0 0 0 0 0 0 0 0 0 0 0 0 0 0 0 0 0 0 0 0 0 0 0 0 0 0 0 0 0 0
0 0 0 0 0 0 0 0 0 0 0 0 0 0 0 0 0 0 0 0 0 0 0 0 0 0 0 0 0 0 0 0 0 0 0 0 0 0 0 0 0 0 0 0
0 0 0 0 0 0 0 0 0 0 0 0 0 0 0 0 0 0 0 0 0 0 0 0 0 0 0 0 0 0 0 0 0 0 0 0 0 0 0 0 0 0 0 0
0 0 0 0 0 0 0 0 0 0 0 0 0 0 0 0 0 0 0 0 0 0 0 0 0 0 0 0 0 0 0 0 0 0 0 0 0 0 0 0 0 0 0 0
0 0 0 0 0 0 0 0 0 0 0 0 0 0 0 0 0 0 0 0 0 0 0 0 0 0 0 0 0 0 0 0 0 0 0 0 0 0 0 0 0 0 0 0
0 0 0 0 0 0 0 0 0 0 0 0 0 0 0 0 0 0 0 0 0 0 0 0 0 0 0 0 0 0 0 0 0 0 0 0 0 0 0 0 0 0 0 0
0 0 0 0 0 0 0 0 0 0 0 0 0 0 0 0 0 0 0 0 0 0 0 0 0 0 0 0 0 0 0 0 0 0 0 0 0 0 0 0 0 0 0 0
0 0 0 0 0 0 0 0 0 0 0 0 0 0 0 0 0 0 0 0 0 0 0 0 0 0 0 0 0 0 0 0 0 0 0 0 0 0 0 0 0 0 0 0
0 0 0 0 0 0 0 0 0 0 0 0 0 0 0 0 0 0 0 0 0 0 0 0 0 0 0 0 0 0 0 0 0 0 0 0 0 0 0 0 0 0 0 0
0 0 0 0 0 0 0 0 0 0 0 0 0 0 0 0 0 0 0 0 0 0 0 0 0 0 0 0 0 0 0 0 0 0 0 0 0 0 0 0 0 0 0 0
0 0 0 0 0 0 0 0 0 0 0 0 0 0 0 0 0 0 0 0 0 0 0 0 0 0 0 0 0 0 0 0 0 0 0 0 0 0 0 0 0 0 0 0
0 0 0 0 0 0 0 0 0 0 0 0 0 0 0 0 0 0 0 0 0 0 0 0 0 0 0 0 0 0 0 0 0 0 0 0 0 0 0 0 0 0 0 0
0 0 0 0 0 0 0 0 0 0 0 0 0 0 0 0 0 0 0 0 0 0 0 0 0 0 0 0 0 0 0 0 0 0 0 0 0 0 0 0 0 0 0 0
0 0 0 0 0 0 0 0 0 0 0 0 0 0 0 0 0 0 0 0 0 0 0 0 0 0 0 0 0 0 0 0 0 0 0 0 0 0 0 0 0 0 0 0
0 0 0 0 0 0 0 0 0 0 0 0 0 0 0 0 0 0 0 0 0 0 0 0 0 0 0 0 0 0 0 0 0 0 0 0 0 0 0 0 0 0 0 0
0 0 0 0 0 0 0 0 0 0 0 0 0 0 0 0 0 0 0 0 0 0 0 0 0 0 0 0 0 0 0 0 0 0 0 0 0 0 0 0 0 0 0 0
0 0 0 0 0 0 0 0 0 0 0 0 0 0 0 0 0 0 0 0 0 0 0 0 0 0 0 0 0 0 0 0 0 0 0 0 0 0 0 0 0 0 0 0
0 0 0 0 0 0 0 0 0 0 0 0 0 0 0 0 0 0 0 0 0 0 0 0 0 0 0 0 0 0 0 0 0 0 0 0 0 0 0 0 0 0 0 0
0 0 0 0 0 0 0 0 0 0 0 0 0 0 0 0 0 0 0 0 0 0 0 0 0 0 0 0 0 0 0 0 0 0 0 0 0 0 0 0 0 0 0 0
0 0 0 0 0 0 0 0 0 0 0 0 0 0 0 0 0 0 0 0 0 0 0 0 0 0 0 0 0 0 0 0 0 0 0 0 0 0 0 0 0 0 0 0
0 0 0 0 0 0 0 0 0 0 0 0 0 0 0 0 0 0 0 0 0 0 0 0 0 0 0 0 0 0 0 0 0 0 0 0 0 0 0 0 0 0 0 0
0 0 0 0 0 0 0 0 0 0 0 0 0 0 0 0 0 0 0 0 0 0 0 0 0 0 0 0 0 0 0 0 0 0 0 0 0 0 0 0 0 0 0 0
0 0 0 0 0 0 0 0 0 0 0 0 0 0 0 0 0 0 0 0 0 0 0 0 0 0 0 0 0 0 0 0 0 0 0 0 0 0 0 0 0 0 0 0
0 0 0 0 0 0 0 0 0 0 0 0 0 0 0 0 0 0 0 0 0 0 0 0 0 0 0 0 0 0 0 0 0 0 0 0 0 0 0 0 0 0 0 0
Wind_Speed
11 11 10 12 13 11 12 13 14 16 17 15 7 4 5 6 6 6 5 5 6 7 7 7 7 7 7 7 7 6 7 7 8 8 8 8 8 9 9 9 10 9 10 11
10 11 11 15 16 15 15 14 15 16 16 6 3 5 6 7 8 7 5 6 8 8 8 8 8 8 8 7 7 7 8 9 10 9 9 9 9 9 9 9 9 9 10 11
6 6 9 11 12 12 9 8 8 9 5 3 5 6 6 8 8 6 7 8 9 8 8 8 8 8 8 8 8 8 9 10 10 10 10 9 9 9 10 9 9 10 10 10
4 5 9 11 6 5 4 4 4 4 4 4 4 4 6 7 5 7 9 9 8 7 8 8 8 8 7 8 8 9 11 11 11 10 9 9 9 10 10 9 9 9 10 10
3 5 11 9 5 3 2 4 2 3 4 5 6 6 5 5 7 7 7 7 7 7 8 8 9 8 7 9 9 10 11 11 9 8 9 10 10 11 10 9 9 8 8 9
4 5 8 6 2 3 3 3 4 5 5 6 7 6 5 6 7 8 7 7 7 8 8 9 9 8 9 11 11 11 11 9 9 9 10 11 11 11 9 8 9 8 9 8
6 6 10 3 3 1 2 2 3 4 5 5 4 5 7 8 7 6 7 8 8 8 8 9 9 9 11 12 12 11 10 10 10 9 10 11 10 9 9 8 9 9 10 9
6 6 10 2 2 2 4 4 5 6 5 5 6 7 7 7 7 7 8 8 9 8 9 9 9 10 13 13 12 11 10 10 10 10 10 9 10 10 9 9 9 9 9 9
7 8 4 1 3 4 4 5 5 5 5 6 6 6 7 7 7 7 8 8 8 9 10 10 10 11 15 15 12 11 11 11 11 11 9 9 10 10 9 8 7 8 7 8
6 6 6 7 8 6 6 6 6 6 6 5 5 6 7 7 7 8 8 9 9 10 12 13 12 12 13 13 12 11 12 11 10 10 10 10 8 7 8 8 8 8 8 9
9 9 8 6 6 7 7 7 7 6 5 5 5 6 7 7 8 8 9 9 8 10 13 14 13 12 12 12 11 12 11 11 10 10 11 10 9 8 9 8 10 11 8 8
9 7 7 7 8 8 7 7 6 6 5 5 5 7 7 7 7 9 10 10 10 11 12 14 13 13 12 10 10 11 11 10 9 9 9 9 10 10 12 15 20 21 20 17
6 7 7 8 7 6 5 5 5 5 5 6 6 7 7 8 8 9 10 11 12 13 14 14 13 13 11 10 10 11 11 12 10 10 10 10 9 10 12 12 16 18 20 20
6 6 7 7 6 5 5 4 4 5 5 6 6 7 8 9 10 11 12 12 13 14 14 13 12 13 12 11 10 11 12 14 13 10 10 9 10 10 10 11 11 8 11 16
5 5 6 6 6 5 4 4 5 5 6 7 7 8 9 10 11 12 13 14 13 13 13 13 14 15 13 11 10 12 12 10 10 9 9 10 10 10 10 10 10 9 7 8
6 5 5 6 6 5 4 4 5 7 8 9 9 10 10 11 12 13 13 11 12 14 14 13 14 15 13 11 11 11 10 16 16 11 10 10 9 9 9 9 9 8 7 6
4 5 5 6 6 5 5 5 6 8 9 10 11 11 12 12 13 13 12 11 11 13 13 13 14 13 11 11 11 10 10 11 17 13 10 10 10 10 9 8 8 8 7 7
3 4 4 5 5 6 6 7 8 9 10 11 12 11 11 12 14 15 14 13 13 13 13 12 12 12 11 12 11 10 10 9 9 10 10 9 10 9 8 8 8 8 6 6
3 4 5 5 5 6 7 8 9 10 10 10 10 11 12 13 13 13 13 13 15 16 13 11 19 15 12 13 16 9 9 10 11 10 9 13 11 8 8 7 7 6 5 4
5 6 6 7 7 8 9 9 10 10 9 9 10 12 13 13 12 13 13 13 11 11 12 14 14 11 11 12 16 9 10 11 11 10 9 9 8 8 7 6 6 5 4 4
7 8 8 9 9 9 9 9 9 11 10 9 10 12 13 13 12 12 12 13 11 11 12 18 12 10 11 13 17 10 10 10 10 9 9 8 8 7 6 6 5 4 4 3
8 8 9 8 8 9 8 8 9 11 11 11 11 11 12 13 12 11 10 11 12 17 13 9 9 14 19 20 10 9 10 10 9 8 8 7 7 7 6 5 4 4 3 2
7 8 8 8 9 9 10 9 10 10 11 11 11 12 12 12 10 10 12 9 9 18 15 9 16 25 27 14 9 9 10 10 9 8 7 7 6 6 5 5 3 3 2 2
8 8 9 8 8 10 12 12 10 8 10 10 10 10 10 9 8 7 8 15 20 22 13 16 25 26 23 10 8 9 9 9 8 7 7 6 5 5 4 4 3 2 2 2
8 9 9 9 9 9 10 10 9 9 9 8 8 9 7 6 8 9 9 11 17 20 12 15 23 23 14 9 9 9 9 8 8 8 6 6 5 5 4 3 2 2 2 1
9 8 8 9 8 8 7 7 7 7 7 8 7 6 6 6 8 9 8 10 12 18 13 10 11 13 10 9 9 9 9 9 8 7 6 5 5 4 3 3 3 2 1 1
8 8 7 7 7 6 6 6 7 7 6 8 9 8 7 7 8 8 10 9 9 9 10 9 9 9 9 9 9 9 8 7 7 6 5 5 4 3 3 2 2 1 1 1
Wind_Direction
271 284 291 285 277 264 251 250 259 269 276 288 315 8 22 17 6 345 329 342 349 338 326 321 325 327 328 321 318 316 311 300 289 283 279 276 272 267 262 256 252 246 242 240
274 275 277 276 270 265 263 259 262 272 278 301 37 35 16 360 336 319 327 347 341 329 324 327 328 325 321 316 313 315 310 300 295 291 286 281 277 273 270 265 260 253 246 243
275 293 303 272 256 253 244 240 255 272 290 30 19 20 359 327 311 327 346 341 330 327 329 327 320 316 313 309 312 312 302 295 292 288 284 281 279 277 271 266 261 257 252 245
284 308 249 246 272 267 262 278 298 305 349 33 22 355 319 305 344 352 339 330 328 328 323 315 311 310 308 311 311 304 297 292 289 286 285 286 284 280 276 270 264 261 256 249
248 264 274 269 288 330 317 294 334 7 18 2 344 329 309 344 0 337 329 328 325 321 315 311 308 308 313 309 302 296 291 288 289 292 293 293 289 285 281 277 274 267 261 253
225 238 256 274 83 34 14 290 46 30 353 337 344 325 301 340 339 333 332 327 321 314 309 307 306 314 313 302 297 293 291 292 297 297 294 291 289 287 284 278 276 274 269 257
234 246 262 277 128 68 247 277 7 348 334 335 320 287 306 333 335 331 321 315 311 308 305 303 310 314 304 299 296 296 300 301 299 295 291 289 290 288 286 282 279 275 272 265
203 224 254 153 142 218 275 331 337 341 345 332 317 317 325 330 327 321 315 310 310 309 306 308 312 310 304 301 299 300 300 299 297 295 293 294 291 290 285 283 284 282 279 275
206 223 263 117 297 301 330 332 340 343 336 332 324 323 327 323 317 311 307 307 309 311 308 307 307 305 301 299 300 302 301 300 299 297 294 293 292 293 292 286 282 282 279 278
275 279 309 320 319 333 353 351 346 343 339 338 327 326 320 313 308 305 304 307 310 310 306 304 302 296 293 300 304 304 302 301 300 300 298 294 290 287 287 285 281 280 280 279
271 282 293 296 335 353 353 351 347 342 343 344 333 317 308 304 302 303 304 302 303 301 299 299 301 301 301 302 303 303 301 301 302 299 298 296 290 285 284 272 275 282 279 274
274 303 312 321 343 352 349 345 342 338 334 330 318 303 302 299 299 299 299 301 301 298 296 300 302 301 300 301 304 306 305 303 301 299 298 295 295 294 285 283 289 287 284 281
305 327 323 324 340 355 342 336 337 333 319 310 305 301 302 298 296 297 300 303 302 301 299 299 299 301 305 308 308 304 302 301 300 297 296 296 297 299 301 298 291 289 288 288
338 338 322 327 328 334 335 332 320 306 303 302 303 304 302 299 298 301 302 301 298 297 297 299 304 306 309 307 304 300 299 299 299 295 295 296 295 294 294 297 300 295 290 291
335 335 315 315 316 314 304 304 307 305 306 304 303 300 299 300 300 299 297 296 296 298 302 306 306 305 305 303 300 299 298 296 295 293 293 292 291 290 290 290 293 296 294 291
326 320 311 308 308 309 317 322 314 305 303 300 301 300 298 295 293 293 295 299 305 306 304 302 300 300 302 302 300 300 297 298 302 299 295 294 293 293 293 293 293 292 290 288
315 310 313 315 316 318 315 309 301 299 300 299 297 297 295 295 296 298 302 302 297 296 298 298 297 297 299 301 301 301 298 299 301 300 294 293 294 294 293 291 292 292 287 285
300 296 300 300 300 300 300 298 294 293 292 290 291 293 297 302 303 302 302 304 303 300 298 295 294 301 301 301 301 298 298 298 297 297 297 297 298 295 294 294 294 295 294 292
309 302 297 293 290 289 288 289 288 285 286 289 295 299 300 298 297 300 305 307 306 304 302 296 305 310 303 301 305 300 299 299 300 299 298 300 302 297 295 296 298 297 295 292
288 286 284 283 282 277 278 280 284 289 293 299 300 300 299 299 300 302 302 298 292 290 294 300 304 303 303 302 307 302 301 301 301 302 301 301 301 301 301 303 303 301 301 299
274 275 274 272 274 274 276 284 292 294 296 296 293 294 296 298 300 300 301 301 299 296 301 308 311 305 305 307 309 304 303 303 302 301 302 303 304 304 307 309 307 308 307 305
268 271 274 276 282 285 286 289 290 291 294 292 289 291 295 299 299 296 287 289 298 306 311 305 305 306 311 313 306 304 303 303 302 302 301 303 306 309 311 310 308 309 308 304
273 278 282 283 284 287 289 287 283 283 284 285 288 291 291 291 294 298 302 300 303 310 313 303 308 312 315 317 307 305 305 305 304 303 303 304 307 308 307 307 308 310 309 305
277 279 279 280 284 286 285 283 277 274 274 277 278 278 283 291 292 284 288 304 311 312 310 307 312 315 319 315 307 307 306 305 305 305 305 305 306 307 306 307 308 310 311 308
269 270 272 275 276 274 275 280 283 280 278 278 278 278 277 279 290 298 299 300 307 312 310 310 313 316 316 307 308 307 307 307 310 311 307 308 309 310 309 310 311 312 312 307
266 266 266 262 262 268 271 273 276 280 284 289 290 289 290 291 293 297 299 301 302 309 311 307 309 312 311 309 308 308 308 310 312 313 308 308 308 308 309 314 315 314 313 314
268 267 269 269 265 260 260 264 272 279 281 285 292 295 296 297 296 298 301 303 306 307 306 307 307 307 308 309 309 308 309 309 308 307 308 309 308 306 312 318 319 319 326 321